Stations météo

Publicité
St-Sauveur, France (7300): Température de l'air & dewpoint: 16.11.2018 11:00:00 - 22.11.2018 11:00:00 (CET)St-Sauveur, France (7300): Vitesse du vent & gusts: 16.11.2018 11:00:00 - 22.11.2018 11:00:00 (CET)St-Sauveur, France (7300): Direction du vent: 16.11.2018 11:00:00 - 22.11.2018 11:00:00 (CET)St-Sauveur, France (7300): reduced air pressure: 16.11.2018 11:00:00 - 22.11.2018 11:00:00 (CET)St-Sauveur, France (7300): visibility: 16.11.2018 11:00:00 - 22.11.2018 11:00:00 (CET)St-Sauveur, France (7300): Quantités de précipitations: 16.11.2018 11:00:00 - 22.11.2018 11:00:00 (CET)
Date & Time tt [°C] td [°C] ff [km/h] ff [knt] fx [km/h] fx [knt] dd ppp [hPa] vv [km] rr [mm]
22.11.2018 11:00:00 9,7 9,1 18 10 30 16 E 1012,4 - 0,0
22.11.2018 10:00:00 7,5 7,1 14 8 27 15 E 1012,1 - 0,0
22.11.2018 09:00:00 6,2 5,8 18 10 27 15 ENE 1011,7 - 0,0
22.11.2018 08:00:00 5,9 5,0 17 9 32 18 NNE 1011,5 - 1,6
22.11.2018 07:00:00 7,6 6,4 9 5 20 11 E 1011,2 - 0,0
22.11.2018 06:00:00 7,0 5,6 12 6 20 11 ESE 1011,0 - 0,0
22.11.2018 05:00:00 6,8 5,3 11 6 34 19 E 1010,9 - 0,0
22.11.2018 04:00:00 6,3 4,5 17 9 33 18 ESE 1011,0 20 0,0
22.11.2018 03:00:00 6,5 4,2 19 10 35 19 ESE 1011,4 - 0,0
22.11.2018 02:00:00 6,8 4,3 19 10 37 20 ESE 1011,8 - 0,0
22.11.2018 01:00:00 6,3 3,6 20 11 38 21 ESE 1012,1 20 0,0
22.11.2018 00:00:00 6,4 3,2 22 12 45 25 ESE 1012,0 - 0,0
21.11.2018 23:00:00 6,4 2,7 23 12 47 25 ESE 1012,1 - 0,0
21.11.2018 22:00:00 6,2 1,9 24 13 46 25 ESE 1012,3 20 0,0
21.11.2018 21:00:00 6,1 1,2 23 12 45 24 ESE 1012,2 - 0,0
21.11.2018 20:00:00 6,6 0,3 23 13 46 25 ESE 1012,0 - 0,0
21.11.2018 19:00:00 6,3 0,2 21 12 42 23 ESE 1011,6 18 0,0
21.11.2018 18:00:00 6,6 -0,9 19 10 39 21 ESE 1011,2 - 0,0
21.11.2018 17:00:00 7,5 -1,0 19 11 36 19 ESE 1011,1 - 0,0
21.11.2018 16:00:00 8,1 0,1 19 10 38 21 SE 1010,8 25 0,0
21.11.2018 15:00:00 7,7 2,2 19 10 39 21 SE 1010,5 - 0,0
21.11.2018 14:00:00 9,3 3,5 21 11 41 22 SE 1010,4 - 0,0
21.11.2018 13:00:00 9,2 2,5 24 13 48 26 SE 1010,6 - 0,0
21.11.2018 12:00:00 9,2 4,0 25 13 46 25 SE 1010,1 - 0,0
21.11.2018 11:00:00 8,0 2,7 26 14 51 28 SSE 1009,9 - 0,0
21.11.2018 10:00:00 7,8 1,6 26 14 48 26 SSE 1009,2 15 0,0
21.11.2018 09:00:00 7,7 3,9 29 16 52 28 SE 1008,6 - 0,0
21.11.2018 08:00:00 8,2 4,2 29 16 50 27 SE 1007,6 - 0,0
21.11.2018 07:00:00 7,9 0,4 13 7 26 14 SSE 1007,1 20 0,0
21.11.2018 06:00:00 7,6 1,6 14 8 28 15 S 1006,7 - 0,0
21.11.2018 05:00:00 5,6 2,4 13 7 24 13 S 1006,4 - 0,0
21.11.2018 04:00:00 3,2 1,7 5 3 11 6 ENE 1006,2 25 0,0
21.11.2018 03:00:00 1,3 0,0 5 3 9 5 NE 1006,1 - 0,0
21.11.2018 02:00:00 1,9 0,7 0 0 13 7 N 1006,0 - 0,0
21.11.2018 01:00:00 0,6 -0,7 8 4 17 9 S 1005,9 - 0,0
21.11.2018 00:00:00 0,6 -0,7 6 3 15 8 SSW 1005,8 - 0,0
20.11.2018 23:00:00 0,3 -0,8 4 2 10 6 ESE 1005,7 - 0,0
20.11.2018 22:00:00 0,3 -1,1 3 2 5 3 E 1005,4 25 0,0
20.11.2018 21:00:00 0,3 -1,0 0 0 4 2 N 1005,1 - 0,0
20.11.2018 20:00:00 0,8 -1,1 0 0 5 3 N 1004,8 - 0,0
20.11.2018 19:00:00 2,1 -0,8 0 0 5 3 N 1004,4 - 0,0
20.11.2018 18:00:00 4,0 1,2 3 1 9 5 NNW 1003,9 - 0,0
20.11.2018 17:00:00 4,4 0,5 2 1 11 6 N 1003,4 - 0,0
20.11.2018 16:00:00 5,6 0,6 7 4 14 7 NNE 1003,2 20 0,0
20.11.2018 15:00:00 5,9 0,4 6 3 12 7 NNE 1003,0 - 0,0
20.11.2018 14:00:00 5,8 0,3 7 4 16 9 NE 1003,3 - 0,0
20.11.2018 13:00:00 6,0 0,5 5 3 19 10 NE 1003,7 - 0,0
20.11.2018 12:00:00 6,2 1,3 9 5 22 12 NE 1003,8 - 0,0
20.11.2018 11:00:00 5,3 1,4 12 6 24 13 NNE 1003,8 - 0,0
20.11.2018 10:00:00 4,3 1,5 15 8 29 15 NE 1003,8 15 0,0
20.11.2018 09:00:00 3,2 1,1 16 9 31 17 NE 1003,9 - 0,0
20.11.2018 08:00:00 3,0 0,9 17 9 31 17 NE 1004,2 - 0,0
20.11.2018 07:00:00 3,3 1,0 19 10 36 19 ENE 1004,0 15 0,0
20.11.2018 06:00:00 2,9 0,9 16 9 31 17 NE 1004,1 - 0,0
20.11.2018 05:00:00 3,2 0,9 17 9 39 21 ENE 1004,4 - 0,0
20.11.2018 04:00:00 3,4 1,4 18 10 38 20 NE 1004,9 20 0,0
20.11.2018 03:00:00 3,5 1,2 23 12 49 26 NE 1005,3 - 0,0
20.11.2018 02:00:00 3,8 1,3 26 14 47 26 ENE 1005,6 - 0,0
20.11.2018 01:00:00 4,0 1,2 27 15 51 28 NE 1006,1 20 0,0
20.11.2018 00:00:00 4,0 0,7 28 15 51 28 NE 1006,4 - 0,0
19.11.2018 23:00:00 3,8 0,5 22 12 47 26 NE 1007,2 - 0,0
19.11.2018 22:00:00 3,9 0,1 25 13 51 28 ENE 1007,6 20 0,0
19.11.2018 21:00:00 4,0 -0,2 26 14 46 25 NE 1007,9 - 0,0
19.11.2018 20:00:00 4,3 -0,9 31 17 61 33 ENE 1008,2 - 0,0
19.11.2018 19:00:00 4,7 -0,5 36 19 61 33 NE 1007,7 20 0,0
19.11.2018 18:00:00 5,0 -0,8 32 18 66 35 NE 1007,6 - 0,0
19.11.2018 17:00:00 5,8 -0,7 26 14 47 26 NE 1007,6 - 0,0
19.11.2018 16:00:00 6,5 -0,5 26 14 46 25 NE 1007,6 - 0,0
19.11.2018 15:00:00 6,8 0,0 23 12 47 25 ENE 1008,1 - 0,0
19.11.2018 14:00:00 7,2 0,2 27 14 45 25 NE 1008,9 - 0,0
19.11.2018 13:00:00 6,7 0,6 26 14 47 26 ENE 1009,5 - 0,0
19.11.2018 12:00:00 5,9 0,8 23 12 47 26 ENE 1010,3 - 0,0
19.11.2018 11:00:00 5,4 0,6 23 12 48 26 ENE 1010,7 - 0,0
19.11.2018 10:00:00 4,0 0,5 27 14 48 26 ENE 1011,3 - 0,0
19.11.2018 09:00:00 3,1 0,7 24 13 53 29 ENE 1011,5 - 0,0
19.11.2018 08:00:00 3,3 1,2 29 16 47 25 ENE 1011,3 - 0,0
19.11.2018 07:00:00 3,5 1,5 24 13 44 24 ENE 1011,6 20 0,0
19.11.2018 06:00:00 3,8 1,8 19 11 40 22 ENE 1012,2 - 0,0
19.11.2018 05:00:00 4,3 2,0 21 11 43 23 E 1012,2 - 0,0
19.11.2018 04:00:00 4,5 1,9 21 12 42 23 E 1012,4 - 0,0
19.11.2018 03:00:00 5,0 2,7 17 9 47 25 ENE 1012,9 - 0,0
19.11.2018 02:00:00 4,9 2,4 26 14 52 28 E 1013,1 - 0,0
19.11.2018 01:00:00 4,6 2,5 28 15 52 28 ENE 1013,6 - 0,0
19.11.2018 00:00:00 5,6 3,1 23 12 43 23 ENE 1013,7 - 0,0
18.11.2018 23:00:00 6,0 3,5 22 12 45 25 ENE 1013,8 - 0,0
18.11.2018 22:00:00 6,5 4,0 24 13 53 29 E 1014,2 20 0,0
18.11.2018 21:00:00 7,0 4,3 31 17 55 30 E 1014,4 - 0,0
18.11.2018 20:00:00 7,5 4,4 26 14 53 28 ENE 1014,5 - 0,0
18.11.2018 19:00:00 8,2 4,6 29 16 55 30 ENE 1014,3 20 0,0
18.11.2018 18:00:00 8,8 4,6 28 15 49 27 ENE 1013,9 - 0,0
18.11.2018 17:00:00 9,7 4,5 31 17 49 26 ENE 1013,6 - 0,0
18.11.2018 16:00:00 10,5 4,8 25 13 46 25 ENE 1013,8 20 0,0
18.11.2018 15:00:00 10,8 5,1 27 15 48 26 ENE 1013,8 - 0,0
18.11.2018 14:00:00 11,0 5,9 24 13 43 23 NE 1014,3 - 0,0
18.11.2018 13:00:00 10,6 5,8 24 13 44 24 ENE 1015,2 - 0,0
18.11.2018 12:00:00 10,3 5,7 22 12 42 23 ENE 1016,4 - 0,0
18.11.2018 11:00:00 9,2 5,7 22 12 44 24 E 1016,3 - 0,0
18.11.2018 10:00:00 7,8 5,3 21 11 42 23 ENE 1016,6 - 0,0
18.11.2018 09:00:00 6,4 4,9 19 10 41 22 ENE 1016,5 - 0,0
18.11.2018 08:00:00 6,2 4,7 21 11 42 23 ENE 1015,9 - 0,0
18.11.2018 07:00:00 6,7 5,2 21 12 40 21 E 1015,5 15 0,0
18.11.2018 06:00:00 6,8 5,6 20 11 46 25 E 1015,2 - 0,0
18.11.2018 05:00:00 6,8 5,6 21 11 43 23 E 1014,9 - 0,0
18.11.2018 04:00:00 6,8 5,1 21 11 42 23 E 1015,0 - 0,0
18.11.2018 03:00:00 6,5 4,7 22 12 44 24 E 1015,2 - 0,0
18.11.2018 02:00:00 6,2 4,0 21 12 42 23 E 1015,2 - 0,0
18.11.2018 01:00:00 5,6 3,4 22 12 43 23 E 1015,9 20 0,0
18.11.2018 00:00:00 5,8 3,3 22 12 47 25 E 1016,3 - 0,0
17.11.2018 23:00:00 5,9 3,6 23 13 55 30 E 1016,9 - 0,0
17.11.2018 22:00:00 5,5 3,3 26 14 55 30 E 1016,8 - 0,0
17.11.2018 21:00:00 5,6 3,6 24 13 47 26 E 1017,0 - 0,0
17.11.2018 20:00:00 5,4 3,6 24 13 48 26 E 1016,7 - 0,0
17.11.2018 19:00:00 6,2 4,4 23 13 42 23 E 1016,7 20 0,0
17.11.2018 18:00:00 6,7 5,2 21 11 38 21 ENE 1016,8 - 0,0
17.11.2018 17:00:00 7,3 5,9 18 10 36 20 E 1017,0 - 0,0
17.11.2018 16:00:00 8,6 7,8 16 8 34 18 ENE 1016,9 - 0,0
17.11.2018 15:00:00 9,1 8,5 16 8 32 17 E 1017,4 - 0,0
17.11.2018 14:00:00 9,4 8,9 16 9 30 16 E 1017,7 - 0,0
17.11.2018 13:00:00 9,2 8,9 15 8 28 15 E 1018,1 - 0,0
17.11.2018 12:00:00 9,1 9,0 16 9 28 15 E 1018,7 - 0,0
17.11.2018 11:00:00 9,3 9,2 16 9 28 15 E 1019,3 - 0,0
17.11.2018 10:00:00 8,9 8,8 15 8 33 18 E 1019,5 0,3 0,0
17.11.2018 09:00:00 8,9 8,8 17 9 33 18 E 1019,3 - 0,0
17.11.2018 08:00:00 8,9 8,8 18 10 31 17 E 1019,0 - 0,0
17.11.2018 07:00:00 9,2 9,1 18 10 33 18 E 1019,0 0,3 0,0
17.11.2018 06:00:00 9,5 9,4 19 10 32 18 E 1018,9 - 0,0
17.11.2018 05:00:00 9,8 9,7 17 9 32 18 E 1019,1 - 0,0
17.11.2018 04:00:00 10,3 10,1 18 10 34 19 E 1019,3 - 0,0
17.11.2018 03:00:00 10,5 10,3 17 9 31 17 E 1019,8 - 0,0
17.11.2018 02:00:00 10,6 10,4 18 10 29 16 E 1019,7 - 0,0
17.11.2018 01:00:00 10,8 10,6 14 8 27 15 E 1019,8 - 0,0
17.11.2018 00:00:00 10,9 10,7 17 9 33 18 E 1020,1 - 0,0
16.11.2018 23:00:00 11,3 11,0 16 9 31 17 E 1020,0 - 0,0
16.11.2018 22:00:00 11,6 11,3 16 9 32 18 E 1020,0 0,5 0,0
16.11.2018 21:00:00 11,9 11,3 17 9 30 16 ENE 1019,9 - 0,0
16.11.2018 20:00:00 12,9 12,1 16 9 27 15 E 1019,9 - 0,0
16.11.2018 19:00:00 13,4 12,6 13 7 22 12 ENE 1020,0 10 0,0
16.11.2018 18:00:00 13,2 11,9 12 6 18 10 ESE 1019,8 - 0,0
16.11.2018 17:00:00 14,6 12,6 10 5 21 11 ESE 1019,6 - 0,0
16.11.2018 16:00:00 15,2 12,7 13 7 30 16 SE 1019,9 20 0,0
16.11.2018 15:00:00 15,2 12,5 17 9 32 17 SE 1020,1 - 0,0
16.11.2018 14:00:00 15,7 12,4 15 8 30 16 SE 1020,6 - 0,0
16.11.2018 13:00:00 15,4 12,9 18 10 29 16 SE 1021,1 - 0,0
16.11.2018 12:00:00 15,2 13,4 16 9 28 15 ESE 1021,4 - 0,0
16.11.2018 11:00:00 13,7 13,2 13 7 26 14 ESE 1021,7 - 0,0

tt = Température de l'air
td = dewpoint
ff = Vitesse du vent
fx = gusts
dd = Direction du vent
ppp = reduced air pressure
vv = visibility
rr = Quantités de précipitations

stations d'obs. à proximité